Robstown, TX

4:42 PM CDT on April 19, 2018 (GMT -0500)
Robstown

Weather History for KRBO - May, 2013

Change the Weather History Date:

Thursday, May 30, 2013

  Actual Average (KCRP) Record (KCRP)
Temperature  
Mean Temperature 86 °F -  
Max Temperature 93 °F 88 °F 95 °F (1994)
Min Temperature 79 °F 70 °F 59 °F (1984)
Cooling Degree Days 21    
Growing Degree Days 36 (Base 50)    
Moisture  
Dew Point 74 °F    
Average Humidity 71    
Maximum Humidity 86    
Minimum Humidity 49    
Precipitation  
Precipitation 0.00 in - - ()
Sea Level Pressure  
Sea Level Pressure 29.79 in    
Wind  
Wind Speed 18 mph (SE)    
Max Wind Speed 22 mph    
Max Gust Speed 28 mph    
Visibility 10 miles    
Events      
Averages and records for this station are not official NWS values.
T = Trace of Precipitation, MM = Missing Value Source: NWS Daily Summary

Daily Weather History Graph

Daily Weather History Graph

Search for Another Location

Airport or City:

Astronomy

May. 30, 2013 Rise Set
Actual Time 6:35 AM CDT 8:21 PM CDT
Civil Twilight 6:09 AM CDT 8:47 PM CDT
Nautical Twilight 5:37 AM CDT 9:19 PM CDT
Astronomical Twilight 5:04 AM CDT 9:52 PM CDT
Moon 12:40 AM CDT (5/30) 12:25 PM CDT (5/30)
Length of Visible Light 14h 38m
Length of Day
13h 46m
Waning Gibbous, 62% of the Moon is Illuminated
May 30
Waning Gibbous
May 31
Last Quarter
Jun 8
New
Jun 16
First Quarter
Jun 23
Full

Hourly Weather History & Observations

Time (CDT) Temp. Heat Index Dew Point Humidity Pressure Visibility Wind Dir Wind Speed Gust Speed Precip Events Conditions
12:15 AM 80.6 °F 85.7 °F 74.3 °F 81% 29.79 in 10.0 mi SE 19.6 mph - N/A   Mostly Cloudy
12:35 AM 80.4 °F 85.5 °F 74.3 °F 82% 29.79 in 10.0 mi SE 18.4 mph - N/A   Mostly Cloudy
12:55 AM 80.1 °F 84.6 °F 74.3 °F 82% 29.79 in 10.0 mi SE 16.1 mph 21.9 mph N/A   Overcast
1:15 AM 79.7 °F - 74.3 °F 83% 29.79 in 10.0 mi SE 20.7 mph - N/A   Mostly Cloudy
1:35 AM 79.7 °F - 74.3 °F 83% 29.77 in 10.0 mi SE 19.6 mph 26.5 mph N/A   Scattered Clouds
1:55 AM 79.7 °F - 74.3 °F 83% 29.76 in 10.0 mi SE 21.9 mph 27.6 mph N/A   Scattered Clouds
2:15 AM 79.5 °F - 74.3 °F 84% 29.76 in 10.0 mi SE 20.7 mph 25.3 mph N/A   Mostly Cloudy
2:35 AM 79.7 °F - 74.3 °F 83% 29.76 in 10.0 mi SE 17.3 mph 24.2 mph N/A   Mostly Cloudy
2:55 AM 79.7 °F - 74.3 °F 83% 29.76 in 10.0 mi SSE 19.6 mph 25.3 mph N/A   Mostly Cloudy
3:15 AM 79.5 °F - 74.3 °F 84% 29.76 in 10.0 mi SE 17.3 mph - N/A   Mostly Cloudy
3:35 AM 79.3 °F - 74.3 °F 84% 29.76 in 10.0 mi SSE 18.4 mph - N/A   Scattered Clouds
3:55 AM 79.7 °F - 74.3 °F 83% 29.76 in 10.0 mi SSE 19.6 mph 23.0 mph N/A   Mostly Cloudy
4:15 AM 79.2 °F - 74.3 °F 85% 29.76 in 10.0 mi SE 17.3 mph - N/A   Mostly Cloudy
4:35 AM 79.2 °F - 74.1 °F 84% 29.76 in 10.0 mi SSE 16.1 mph - N/A   Mostly Cloudy
4:55 AM 79.2 °F - 74.3 °F 85% 29.76 in 10.0 mi SSE 16.1 mph - N/A   Mostly Cloudy
5:15 AM 79.2 °F - 74.3 °F 85% 29.76 in 10.0 mi SSE 15.0 mph - N/A   Mostly Cloudy
5:35 AM 79.0 °F - 74.3 °F 85% 29.76 in 10.0 mi SSE 13.8 mph - N/A   Overcast
5:55 AM 79.2 °F - 74.5 °F 86% 29.76 in 10.0 mi SE 15.0 mph - N/A   Overcast
6:15 AM 79.3 °F - 74.5 °F 85% 29.77 in 10.0 mi SSE 16.1 mph - N/A   Overcast
6:35 AM 79.3 °F - 74.5 °F 85% 29.78 in 10.0 mi SSE 16.1 mph 21.9 mph N/A   Overcast
6:55 AM 79.3 °F - 74.5 °F 85% 29.78 in 10.0 mi SSE 15.0 mph - N/A   Overcast
7:15 AM 79.2 °F - 74.5 °F 86% 29.79 in 10.0 mi SSE 13.8 mph - N/A   Overcast
7:35 AM 80.1 °F 84.9 °F 74.8 °F 84% 29.79 in 10.0 mi SSE 12.7 mph - N/A   Overcast
7:55 AM 80.6 °F 85.9 °F 74.7 °F 82% 29.80 in 10.0 mi SE 16.1 mph - N/A   Mostly Cloudy
8:15 AM 81.0 °F 86.5 °F 74.5 °F 81% 29.81 in 10.0 mi SSE 18.4 mph - N/A   Overcast
8:35 AM 81.9 °F 88.0 °F 74.3 °F 78% 29.81 in 10.0 mi SSE 17.3 mph 23.0 mph N/A   Overcast
8:55 AM 82.8 °F 89.2 °F 74.3 °F 75% 29.82 in 10.0 mi SSE 15.0 mph - N/A   Mostly Cloudy
9:15 AM 84.9 °F 92.9 °F 74.5 °F 71% 29.82 in 10.0 mi SSE 20.7 mph - N/A   Mostly Cloudy
9:35 AM 84.2 °F 90.9 °F 73.6 °F 70% 29.82 in 10.0 mi SSE 17.3 mph 24.2 mph N/A   Mostly Cloudy
9:55 AM 84.4 °F 91.0 °F 73.4 °F 69% 29.82 in 10.0 mi SSE 16.1 mph - N/A   Mostly Cloudy
10:15 AM 84.9 °F 92.1 °F 73.8 °F 69% 29.82 in 10.0 mi SSE 16.1 mph - N/A   Mostly Cloudy
10:35 AM 85.1 °F 92.6 °F 73.8 °F 69% 29.82 in 10.0 mi SSE 15.0 mph - N/A   Mostly Cloudy
10:55 AM 88.3 °F 96.4 °F 73.2 °F 61% 29.81 in 10.0 mi SSE 18.4 mph 25.3 mph N/A   Mostly Cloudy
11:15 AM 89.1 °F 96.5 °F 72.5 °F 58% 29.81 in 10.0 mi SSE 17.3 mph 26.5 mph N/A   Scattered Clouds
11:35 AM 90.5 °F 98.6 °F 72.7 °F 56% 29.81 in 10.0 mi SSE 18.4 mph 25.3 mph N/A   Mostly Cloudy
11:55 AM 90.5 °F 97.5 °F 72.0 °F 54% 29.81 in 10.0 mi SSE 20.7 mph 24.2 mph N/A   Scattered Clouds
12:15 PM 91.0 °F 98.2 °F 72.0 °F 53% 29.81 in 10.0 mi SSE 17.3 mph 23.0 mph N/A   Mostly Cloudy
12:35 PM 91.9 °F 99.5 °F 72.1 °F 52% 29.81 in 10.0 mi SE 18.4 mph 25.3 mph N/A   Scattered Clouds
12:55 PM 92.8 °F 100.9 °F 72.1 °F 51% 29.80 in 10.0 mi SE 18.4 mph 24.2 mph N/A   Scattered Clouds
1:15 PM 91.8 °F 99.1 °F 72.1 °F 52% 29.80 in 10.0 mi SSE 20.7 mph 26.5 mph N/A   Scattered Clouds
1:35 PM 91.9 °F 99.0 °F 71.6 °F 51% 29.80 in 10.0 mi SE 19.6 mph - N/A   Mostly Cloudy
1:55 PM 92.3 °F 99.7 °F 71.6 °F 51% 29.79 in 10.0 mi SE 18.4 mph 24.2 mph N/A   Mostly Cloudy
2:15 PM 92.7 °F 99.9 °F 71.4 °F 50% 29.79 in 10.0 mi SSE 16.1 mph 25.3 mph N/A   Mostly Cloudy
2:35 PM 93.0 °F 100.7 °F 72.0 °F 50% 29.79 in 10.0 mi SE 17.3 mph 24.2 mph N/A   Mostly Cloudy
2:55 PM 92.7 °F 100.5 °F 72.0 °F 51% 29.78 in 10.0 mi SE 15.0 mph - N/A   Scattered Clouds
3:15 PM 92.3 °F 100.3 °F 72.1 °F 52% 29.78 in 10.0 mi SE 18.4 mph 21.9 mph N/A   Mostly Cloudy
3:35 PM 93.9 °F 102.1 °F 72.1 °F 49% 29.78 in 10.0 mi ESE 19.6 mph 25.3 mph N/A   Scattered Clouds
3:55 PM 92.5 °F 100.7 °F 72.3 °F 52% 29.77 in 10.0 mi ESE 16.1 mph 25.3 mph N/A   Mostly Cloudy
4:15 PM 92.3 °F 100.3 °F 72.5 °F 52% 29.77 in 10.0 mi SE 20.7 mph 24.2 mph N/A   Mostly Cloudy
4:35 PM 91.4 °F 98.9 °F 72.1 °F 53% 29.77 in 10.0 mi SE 19.6 mph 25.3 mph N/A   Mostly Cloudy
4:55 PM 90.1 °F 97.8 °F 72.5 °F 56% 29.77 in 10.0 mi ESE 21.9 mph 25.3 mph N/A   Mostly Cloudy
5:15 PM 90.9 °F 98.9 °F 72.9 °F 55% 29.77 in 10.0 mi ESE 19.6 mph 24.2 mph N/A   Mostly Cloudy
5:35 PM 89.8 °F 97.5 °F 72.7 °F 57% 29.77 in 10.0 mi ESE 18.4 mph 25.3 mph N/A   Scattered Clouds
5:55 PM 90.0 °F 98.5 °F 73.2 °F 58% 29.77 in 10.0 mi SE 18.4 mph - N/A   Mostly Cloudy
6:15 PM 89.1 °F 97.0 °F 73.0 °F 59% 29.77 in 10.0 mi SE 18.4 mph 24.2 mph N/A   Scattered Clouds
6:35 PM 88.5 °F 96.8 °F 73.4 °F 61% 29.77 in 10.0 mi ESE 19.6 mph 26.5 mph N/A   Scattered Clouds
6:55 PM 87.1 °F 94.9 °F 73.4 °F 64% 29.77 in 10.0 mi SE 19.6 mph - N/A   Scattered Clouds
7:15 PM 87.1 °F 94.9 °F 73.6 °F 64% 29.77 in 10.0 mi SE 19.6 mph 23.0 mph N/A   Clear
7:35 PM 86.0 °F 93.4 °F 73.6 °F 66% 29.78 in 10.0 mi SE 19.6 mph 24.2 mph N/A   Clear
7:55 PM 84.9 °F 92.5 °F 74.3 °F 70% 29.78 in 10.0 mi SE 18.4 mph - N/A   Scattered Clouds
8:15 PM 83.8 °F 91.1 °F 74.3 °F 73% 29.79 in 10.0 mi SE 19.6 mph 23.0 mph N/A   Scattered Clouds
8:35 PM 82.9 °F 89.9 °F 74.7 °F 76% 29.79 in 10.0 mi SE 17.3 mph 23.0 mph N/A   Scattered Clouds
8:55 PM 82.4 °F 89.2 °F 75.0 °F 78% 29.80 in 10.0 mi SE 17.3 mph 21.9 mph N/A   Scattered Clouds
9:15 PM 82.2 °F 89.1 °F 75.2 °F 79% 29.80 in 10.0 mi SE 16.1 mph - N/A   Mostly Cloudy
9:35 PM 81.9 °F 88.5 °F 75.2 °F 80% 29.80 in 10.0 mi SE 16.1 mph - N/A   Scattered Clouds
9:55 PM 81.7 °F 88.3 °F 75.2 °F 81% 29.81 in 10.0 mi SSE 17.3 mph - N/A   Scattered Clouds
10:15 PM 81.5 °F 87.8 °F 75.2 °F 81% 29.81 in 10.0 mi SE 15.0 mph - N/A   Scattered Clouds
10:35 PM 81.1 °F 87.4 °F 75.4 °F 83% 29.82 in 10.0 mi SE 10.4 mph - N/A   Scattered Clouds
10:55 PM 80.8 °F 86.7 °F 75.4 °F 84% 29.83 in 10.0 mi SE 11.5 mph - N/A   Clear
11:15 PM 80.6 °F 86.4 °F 75.6 °F 85% 29.83 in 10.0 mi SE 12.7 mph - N/A   Clear
11:35 PM 80.2 °F 85.7 °F 75.6 °F 86% 29.83 in 10.0 mi SE 11.5 mph - N/A   Clear
11:55 PM 80.2 °F 85.7 °F 75.7 °F 86% 29.84 in 10.0 mi SE 12.7 mph 17.3 mph N/A   Scattered Clouds